Wetbulb
42.29 43.51 46.60 46.27 52.37 53.42 53.55 53.83 53.89 56.68 57.92 59.32 58.58 58.81 58.82 60.13 59.17 67.14 66.54 66.48 66.07 65.65 65.77 64.41 62.50 62.11 60.97 59.93 60.32 58.81 58.94 58.28 58.17 56.85 56.42 57.22 57.87 58.08 58.44 59.04 59.26 59.61 60.83
40.45 42.44 46.41 47.02 52.09 52.74 53.42 53.87 54.77 56.19 58.69 59.60 59.35 59.38 59.25 59.23 59.82 66.35 66.11 66.22 66.03 65.40 65.70 64.44 62.60 61.53 60.11 59.30 58.99 58.67 57.48 58.27 57.73 55.94 55.75 54.16 56.99 58.16 58.33 58.83 58.99 58.86 59.60
39.53 41.59 45.16 48.75 51.48 51.86 52.71 54.10 55.28 56.23 59.19 59.58 59.60 59.32 59.32 59.03 64.16 65.17 65.14 65.13 65.22 65.48 65.45 64.68 63.76 61.54 61.28 59.73 58.96 58.57 58.30 57.04 57.35 59.18 57.40 53.84 53.29 55.39 57.35 58.82 59.56 59.05 58.38
40.63 43.34 45.31 46.23 49.36 50.94 52.62 54.38 55.46 57.49 59.35 59.33 58.10 57.43 57.06 56.32 60.92 63.90 63.92 64.49 64.23 64.68 65.00 64.45 63.84 62.31 61.55 60.17 58.58 59.13 58.53 58.49 57.13 58.58 60.43 58.82 57.34 53.82 53.88 57.51 57.87 58.23 58.15
40.23 44.55 45.50 47.73 50.84 50.92 52.20 54.63 56.80 58.47 59.10 58.68 58.24 57.43 56.95 57.91 59.23 62.13 61.85 62.57 62.64 64.12 64.38 64.16 63.36 62.38 61.98 60.76 59.60 59.04 59.27 59.19 58.57 58.34 58.33 58.21 57.76 57.40 55.11 53.47 55.78 57.61 56.28
40.22 43.21 45.15 47.68 50.52 51.01 52.95 55.76 56.78 58.05 58.55 58.13 57.95 57.29 56.93 56.91 58.87 60.17 60.63 60.72 61.01 62.04 63.67 63.65 62.66 62.44 62.18 60.51 60.33 60.07 59.92 60.80 60.29 60.08 59.97 58.80 57.11 56.40 55.83 54.15 54.38 54.79 55.18
41.02 42.33 44.96 50.63 51.29 53.49 55.04 56.13 57.24 57.25 57.88 57.74 57.43 57.30 57.09 58.53 59.80 60.23 60.23 61.01 60.54 60.93 62.04 62.94 62.44 62.04 61.98 60.95 60.79 60.46 60.62 61.65 61.59 60.71 60.44 60.42 59.49 58.51 56.83 55.93 55.84 54.90 53.46
43.02 45.18 47.23 51.17 52.49 53.73 55.24 56.08 57.19 56.86 57.32 57.08 56.81 57.25 58.14 59.27 60.50 61.17 61.03 61.46 61.53 61.20 62.44 62.79 62.51 61.65 61.01 60.69 60.65 60.95 61.56 61.43 61.22 60.62 60.58 59.71 59.30 59.24 58.71 57.38 54.31 52.88 52.11
47.73 48.49 50.24 51.31 52.90 53.75 54.01 56.79 56.84 56.64 56.45 56.62 56.74 56.55 57.32 59.29 60.72 60.88 61.24 61.23 61.67 61.43 61.75 62.03 61.48 60.90 60.87 60.83 60.88 61.08 61.38 61.19 60.77 60.55 60.46 59.33 58.84 59.48 59.01 58.05 56.35 53.74 49.07
46.63 47.59 49.89 51.88 53.53 54.81 55.49 57.14 56.92 56.39 55.85 56.41 56.42 56.77 57.38 60.24 61.48 61.12 60.84 60.87 61.07 61.47 61.12 61.73 61.62 61.41 61.51 61.53 61.37 61.26 61.33 60.83 60.41 60.53 59.66 58.05 57.96 57.86 57.56 56.13 56.01 55.72 52.68
48.16 48.40 50.98 52.99 53.80 54.80 56.84 56.79 56.85 56.14 57.64 57.61 58.04 58.07 58.76 60.68 61.36 60.94 60.82 60.76 61.21 61.53 61.41 61.60 61.34 61.64 61.78 61.92 62.10 61.77 61.13 59.98 60.08 58.83 58.76 57.56 57.00 55.88 55.22 54.06 53.78 53.66 54.15
49.07 50.66 51.00 51.76 54.36 56.23 56.90 57.10 57.18 57.51 57.61 58.33 58.36 58.64 58.56 59.18 60.61 61.12 61.07 61.35 61.27 61.56 61.52 61.68 61.68 61.63 61.72 62.21 61.91 60.95 60.79 59.78 59.39 59.01 57.64 55.73 54.88 53.77 53.45 52.25 52.32 51.11 52.01
49.64 51.49 53.09 55.39 56.10 56.35 57.09 57.58 57.66 57.64 58.11 57.90 58.06 58.08 57.73 57.75 57.88 58.21 60.43 61.60 61.38 61.24 61.43 61.81 61.80 61.64 61.92 61.83 61.60 61.01 60.54 59.89 59.22 58.39 57.16 54.47 53.60 51.88 50.26 50.72 49.54 49.43 48.53
46.39 48.13 49.90 51.33 52.94 54.91 56.01 56.57 57.06 57.81 57.89 57.75 57.86 57.40 56.97 57.24 57.53 57.96 58.13 61.33 61.63 61.28 61.33 61.56 61.36 60.95 60.46 59.98 59.38 59.06 58.97 57.49 56.54 55.95 55.03 52.81 52.31 50.40 49.54 48.35 47.68 46.90 45.76
44.64 45.53 46.77 48.53 50.30 51.74 53.19 54.81 55.55 56.24 56.94 56.24 56.10 55.81 56.25 56.67 56.77 56.95 57.30 57.75 58.41 60.03 60.04 59.47 59.50 59.40 58.92 58.32 58.10 57.70 56.91 55.42 53.76 52.80 51.83 51.20 49.58 48.46 48.72 47.34 45.71 44.39 42.91
43.21 44.45 45.46 46.61 48.15 49.95 51.04 52.13 52.64 53.33 54.24 53.84 53.95 54.80 55.16 55.48 55.34 55.61 55.45 54.97 54.89 56.10 57.23 57.11 56.52 57.04 55.20 53.36 53.63 54.92 53.99 52.61 51.13 48.17 45.74 45.77 46.15 47.34 48.53 47.82 47.16 45.01 42.23
42.17 42.83 43.74 45.03 46.72 47.94 49.92 50.38 50.91 51.63 51.32 50.98 51.15 51.49 51.78 51.74 52.35 53.15 53.10 52.80 52.13 52.45 51.89 51.62 51.98 51.49 52.38 52.07 52.19 51.38 51.71 49.41 48.06 46.29 44.64 44.14 45.06 44.98 44.48 46.13 45.64 45.03 45.33
41.69 42.28 42.79 43.49 44.82 47.19 48.19 49.17 49.79 49.69 49.20 48.85 49.05 49.47 49.63 49.61 50.01 50.03 49.92 49.80 50.02 49.70 49.16 48.67 48.51 48.48 48.79 49.24 49.63 49.34 49.56 48.69 47.22 45.92 44.58 44.15 43.74 43.09 42.01 40.29 38.88 38.85 39.64
42.03 42.47 43.05 43.34 44.11 44.70 46.32 45.84 45.48 46.38 46.75 46.74 47.22 47.58 47.67 47.16 47.53 47.16 47.41 47.43 47.41 47.13 47.13 46.80 46.30 45.83 45.83 47.58 47.38 47.79 46.43 45.40 44.94 44.29 43.39 43.47 42.73 44.45 43.73 39.16 37.28 37.57 37.97
41.79 41.36 41.90 42.60 42.80 43.22 43.79 43.14 42.91 43.31 43.75 44.03 44.56 45.46 46.64 46.41 45.35 45.03 45.22 45.76 46.23 45.28 45.92 45.55 45.92 46.00 45.08 45.97 46.11 45.64 44.62 42.66 42.34 42.41 42.47 43.71 41.76 45.64 44.45 38.78 37.99 35.41 34.98
41.92 41.63 41.21 40.63 41.12 42.54 42.47 41.18 41.21 41.16 43.09 44.06 44.22 43.74 43.60 43.33 43.04 42.38 42.10 42.07 42.29 43.23 43.49 43.68 43.83 43.73 43.91 44.44 45.67 45.34 43.97 43.00 41.62 41.28 40.58 41.35 44.73 45.43 44.81 41.84 37.76 36.27 35.18
40.78 41.47 40.07 39.72 40.41 41.34 41.32 39.88 39.13 40.83 42.03 42.47 42.59 42.40 42.31 42.16 42.14 40.89 40.42 40.58 40.18 39.28 39.37 39.88 40.12 40.66 40.58 43.72 45.10 45.60 44.91 44.33 41.16 40.17 40.07 40.77 44.54 44.32 44.08 42.20 41.93 41.66 37.38
39.24 39.80 38.86 38.30 38.66 39.63 39.60 38.12 38.33 39.87 40.54 40.50 40.66 41.05 41.34 41.30 41.21 41.51 41.02 38.97 38.92 38.43 38.28 38.30 37.73 38.24 39.56 40.48 44.30 44.59 44.92 44.66 40.96 41.71 41.85 42.02 43.50 43.38 43.22 42.79 43.08 41.35 32.27
39.25 39.16 38.12 36.97 35.99 36.94 37.47 36.94 37.33 38.11 39.05 38.78 39.15 40.06 39.79 40.54 39.60 40.31 40.18 38.92 38.39 38.12 38.15 37.44 36.45 36.93 37.26 37.86 39.97 41.62 42.30 43.12 40.83 41.26 41.13 41.98 42.15 41.69 39.18 39.59 39.44 35.15 35.02
37.84 37.67 36.06 35.31 35.17 35.99 36.04 36.33 36.73 37.06 37.09 37.72 38.79 39.36 39.80 38.94 39.01 39.27 39.28 38.70 39.25 39.97 38.94 38.69 37.47 36.77 36.74 38.61 40.49 42.02 41.85 41.56 40.77 38.56 36.63 34.53 34.09 33.67 32.99 32.49 33.10 33.71 35.24
36.27 35.72 35.28 34.43 34.16 34.45 34.48 35.43 36.47 36.67 37.13 37.68 37.99 38.42 39.30 39.70 40.36 40.93 40.72 42.24 42.13 42.22 42.36 42.43 40.88 39.75 42.39 42.90 42.49 42.17 42.69 43.16 43.03 37.78 36.16 35.81 35.14 34.76 34.37 33.88 33.39 33.15 34.63
MSLP
1007.50 1007.50 1007.19 1007.02 1007.22 1007.76 1008.24 1008.74 1009.57 1009.75 1010.10 1010.29 1009.91 1009.91 1009.86 1011.57 1011.73 1009.95 1010.43 1011.19 1012.04 1012.72 1013.49 1014.21 1015.21 1015.87 1016.65 1017.42 1018.03 1018.77 1019.38 1020.11 1020.43 1021.26 1021.79 1021.87 1021.86 1021.91 1021.89 1021.83 1021.82 1021.86 1021.96
1006.82 1006.73 1006.49 1006.46 1006.75 1007.22 1007.59 1008.23 1008.72 1008.91 1008.95 1009.53 1009.51 1009.43 1008.72 1010.28 1010.09 1009.12 1009.95 1010.68 1011.34 1012.04 1012.72 1013.83 1014.78 1015.41 1016.23 1017.12 1017.77 1018.35 1019.34 1019.89 1020.13 1020.89 1021.76 1022.32 1022.32 1022.14 1021.92 1021.72 1021.84 1021.75 1021.80
1005.77 1005.95 1005.90 1006.06 1006.26 1006.80 1007.27 1007.54 1007.74 1008.02 1008.05 1008.48 1009.10 1008.52 1008.83 1009.60 1008.52 1008.18 1009.58 1010.29 1010.83 1011.77 1012.19 1013.11 1014.17 1014.98 1015.71 1016.57 1017.23 1017.96 1018.71 1019.57 1020.24 1020.16 1020.83 1021.95 1022.03 1022.10 1022.05 1021.86 1021.77 1021.77 1021.83
1004.78 1004.92 1005.06 1005.46 1005.62 1006.15 1006.53 1006.53 1007.12 1007.35 1007.60 1007.93 1008.48 1007.44 1008.57 1010.56 1007.66 1008.08 1009.20 1009.73 1010.46 1011.40 1012.12 1012.75 1013.46 1014.49 1015.29 1016.20 1016.87 1017.62 1018.24 1018.94 1019.77 1020.22 1020.31 1020.40 1020.78 1021.70 1022.48 1022.12 1021.91 1021.77 1021.89
1003.69 1003.83 1003.87 1004.31 1004.69 1005.29 1005.71 1005.99 1006.62 1006.44 1007.04 1007.50 1007.20 1007.10 1008.55 1009.64 1009.40 1008.32 1008.67 1009.91 1010.68 1010.84 1011.64 1012.09 1013.09 1014.09 1014.80 1015.85 1016.51 1017.37 1018.06 1018.52 1019.27 1019.68 1020.25 1020.47 1020.68 1020.99 1021.75 1022.39 1022.33 1022.16 1022.22
1002.81 1003.06 1003.25 1003.70 1004.31 1004.70 1005.31 1005.45 1005.87 1005.97 1006.45 1006.84 1007.03 1005.92 1008.31 1008.62 1008.36 1008.39 1008.63 1010.10 1010.57 1011.14 1011.51 1011.94 1012.82 1013.58 1014.42 1015.47 1016.23 1017.00 1017.65 1018.18 1018.67 1019.22 1019.53 1019.92 1020.39 1021.02 1021.39 1022.01 1022.29 1022.47 1022.54
1002.50 1002.72 1003.17 1003.59 1003.88 1004.41 1004.77 1004.96 1005.15 1005.55 1005.94 1006.62 1007.14 1005.94 1008.54 1008.86 1008.09 1008.07 1008.15 1009.27 1009.95 1010.73 1011.19 1011.73 1012.47 1013.25 1013.91 1014.96 1015.78 1016.70 1017.40 1017.91 1018.35 1018.73 1019.10 1019.32 1019.66 1020.22 1020.79 1021.44 1022.19 1022.58 1022.88
1002.50 1002.71 1003.17 1003.15 1003.62 1003.97 1004.28 1004.63 1004.70 1005.00 1005.67 1006.11 1006.48 1006.12 1007.16 1007.26 1008.01 1007.83 1008.07 1008.92 1009.62 1010.10 1010.71 1011.42 1012.08 1012.85 1013.78 1014.76 1015.50 1016.48 1017.10 1017.64 1018.09 1018.35 1018.66 1019.07 1019.50 1019.85 1020.21 1020.65 1021.50 1022.44 1022.84
1002.61 1003.11 1002.98 1003.16 1003.42 1003.80 1004.20 1003.86 1004.25 1004.95 1005.54 1005.72 1005.86 1005.85 1006.28 1006.66 1007.13 1007.99 1008.14 1008.82 1009.63 1009.98 1010.60 1011.19 1012.03 1012.81 1013.68 1014.66 1015.48 1016.26 1016.84 1017.47 1017.92 1018.16 1018.40 1018.83 1019.34 1019.66 1020.02 1020.39 1020.74 1020.95 1022.38
1002.92 1003.21 1003.31 1003.20 1003.18 1003.38 1003.62 1003.88 1004.31 1004.99 1005.66 1006.06 1005.95 1005.80 1006.29 1006.02 1005.99 1007.43 1007.89 1008.58 1009.43 1009.95 1010.45 1011.23 1012.07 1012.84 1013.75 1014.62 1015.38 1016.15 1016.71 1017.16 1017.73 1017.99 1018.30 1018.81 1019.21 1019.62 1019.89 1020.46 1020.79 1020.91 1019.98
1002.83 1003.21 1003.19 1002.19 1002.82 1003.04 1002.91 1003.46 1004.32 1004.94 1005.79 1006.26 1006.56 1006.20 1005.55 1004.46 1005.25 1006.73 1007.64 1008.15 1009.10 1009.80 1010.27 1011.09 1012.12 1012.80 1013.63 1014.45 1015.25 1016.02 1016.48 1016.87 1017.42 1017.81 1018.29 1018.72 1019.04 1019.67 1020.03 1020.37 1020.85 1020.97 1020.43
1002.75 1001.63 1001.73 1001.79 1002.40 1002.60 1003.17 1003.73 1004.32 1004.98 1005.54 1005.75 1006.17 1005.63 1004.77 1005.21 1005.57 1006.70 1007.57 1008.22 1009.01 1009.68 1010.16 1011.03 1011.85 1012.67 1013.53 1014.25 1014.91 1015.50 1016.14 1016.50 1016.98 1017.44 1017.97 1018.63 1019.13 1019.82 1020.05 1020.46 1021.16 1021.07 1020.38
1002.69 1001.71 1000.41 1000.82 1002.00 1003.27 1003.83 1004.25 1004.72 1005.27 1005.40 1006.07 1006.07 1006.37 1006.41 1006.31 1007.16 1007.89 1008.04 1008.39 1008.88 1009.53 1010.30 1010.90 1011.65 1012.40 1013.27 1013.94 1014.63 1015.12 1015.71 1016.18 1016.63 1017.01 1017.58 1018.45 1019.14 1019.87 1020.31 1020.63 1021.03 1021.56 1020.52
1003.14 1002.73 1002.18 1003.18 1003.51 1003.97 1004.22 1004.51 1005.06 1005.51 1005.87 1006.38 1006.78 1007.07 1007.44 1007.79 1008.15 1008.05 1008.43 1008.43 1008.82 1009.49 1010.14 1010.82 1011.58 1012.15 1012.93 1013.70 1014.28 1014.92 1015.55 1016.13 1016.50 1016.98 1017.32 1018.08 1018.75 1019.49 1019.89 1020.60 1021.09 1021.42 1020.73
1005.01 1004.44 1004.83 1004.29 1004.25 1004.79 1004.94 1005.00 1005.69 1006.38 1007.04 1007.46 1007.66 1007.82 1008.06 1008.29 1008.71 1009.01 1008.74 1008.50 1009.25 1009.52 1010.67 1011.19 1011.61 1012.10 1012.70 1013.43 1014.12 1014.99 1015.54 1015.99 1016.40 1016.98 1017.26 1017.85 1018.23 1018.55 1019.78 1020.33 1021.33 1020.66 1021.05
1007.16 1006.87 1006.73 1006.75 1006.77 1006.93 1007.18 1007.30 1007.50 1007.75 1007.79 1008.42 1008.68 1008.83 1009.28 1009.44 1009.54 1009.63 1009.72 1009.89 1010.17 1010.33 1010.73 1010.70 1011.63 1011.54 1012.22 1013.40 1013.96 1014.64 1015.31 1015.65 1016.22 1016.90 1017.48 1018.05 1018.21 1018.65 1019.88 1020.22 1020.68 1020.41 1021.22
1009.29 1008.78 1008.68 1008.43 1008.37 1008.54 1008.55 1008.58 1008.92 1009.03 1009.22 1009.29 1009.74 1010.10 1010.41 1010.41 1010.46 1010.63 1010.77 1010.89 1011.05 1011.22 1011.76 1012.24 1012.55 1012.85 1013.42 1013.56 1014.00 1014.47 1014.97 1015.49 1016.16 1016.72 1017.37 1017.95 1018.57 1019.25 1019.90 1020.35 1020.40 1020.71 1021.01
1011.17 1011.02 1010.66 1010.46 1010.41 1010.25 1010.18 1010.30 1010.20 1010.13 1010.09 1010.38 1010.88 1010.94 1010.99 1011.11 1011.29 1011.44 1011.73 1011.91 1012.09 1012.27 1012.81 1012.98 1013.27 1013.55 1013.74 1013.86 1014.12 1014.58 1014.96 1015.68 1016.45 1016.92 1017.33 1017.99 1018.75 1019.31 1019.71 1020.17 1020.55 1020.87 1021.15
1012.54 1012.10 1011.81 1011.67 1011.36 1011.71 1011.81 1011.72 1011.55 1011.39 1011.31 1011.45 1012.03 1011.96 1012.01 1012.10 1011.86 1011.79 1012.10 1012.48 1012.80 1013.11 1013.45 1013.56 1013.83 1014.26 1014.47 1014.69 1014.73 1014.84 1015.28 1016.04 1016.51 1016.91 1017.15 1017.64 1018.58 1018.91 1019.32 1019.84 1020.97 1021.70 1022.39
1013.46 1013.42 1013.16 1013.26 1013.00 1013.34 1012.93 1012.65 1012.94 1012.78 1012.85 1013.71 1013.59 1013.08 1013.09 1013.16 1013.09 1013.02 1013.19 1013.28 1013.05 1012.99 1013.18 1013.65 1014.02 1014.51 1014.98 1015.04 1014.99 1014.90 1015.19 1016.09 1016.87 1017.39 1017.62 1017.96 1018.52 1019.18 1019.41 1020.19 1021.36 1021.85 1022.11
1014.35 1014.32 1014.33 1014.57 1014.74 1014.37 1013.80 1013.66 1013.94 1013.11 1014.29 1014.31 1013.85 1013.70 1014.06 1013.97 1013.83 1013.84 1014.11 1014.17 1014.04 1014.03 1014.14 1013.95 1013.99 1014.06 1013.90 1014.12 1014.38 1014.96 1015.34 1015.81 1016.64 1016.96 1017.55 1018.07 1018.43 1019.10 1019.71 1020.30 1020.91 1021.36 1021.66
1015.29 1015.10 1014.97 1014.77 1014.57 1014.61 1014.75 1014.78 1014.24 1015.28 1015.15 1014.52 1013.71 1014.53 1014.50 1014.51 1014.33 1014.42 1014.45 1014.66 1014.57 1015.04 1014.89 1015.10 1014.95 1014.78 1014.88 1014.98 1014.75 1014.48 1014.17 1014.08 1014.95 1015.65 1016.55 1017.75 1018.42 1018.80 1019.34 1019.60 1019.92 1020.54 1021.26
1016.23 1016.05 1015.91 1015.94 1015.54 1015.48 1015.36 1015.51 1015.55 1016.01 1015.37 1014.51 1015.22 1014.72 1014.46 1014.76 1014.27 1014.56 1014.61 1014.43 1014.48 1015.26 1015.30 1015.31 1015.43 1015.10 1014.93 1015.19 1015.37 1015.02 1014.83 1015.07 1015.51 1015.52 1015.78 1016.36 1017.48 1018.32 1018.93 1019.69 1019.83 1020.39 1021.08
1016.59 1016.89 1017.09 1017.44 1017.33 1016.55 1016.35 1015.93 1015.46 1015.35 1015.21 1015.37 1015.15 1015.29 1015.19 1015.18 1015.11 1014.49 1013.60 1014.24 1015.22 1015.12 1014.97 1014.84 1014.83 1014.66 1014.57 1014.82 1014.66 1014.91 1015.22 1015.13 1014.96 1015.95 1016.66 1016.41 1017.27 1018.07 1018.20 1018.90 1019.80 1020.11 1020.61
1017.24 1017.27 1017.35 1016.93 1016.99 1017.14 1017.25 1017.37 1017.69 1016.76 1015.98 1015.66 1015.52 1015.88 1015.42 1014.80 1013.97 1013.17 1015.29 1015.04 1013.96 1013.63 1014.59 1014.53 1014.06 1014.59 1014.61 1013.74 1013.82 1014.43 1014.49 1015.26 1015.33 1015.79 1016.85 1017.71 1017.97 1018.15 1018.34 1018.95 1019.44 1019.81 1020.24
1017.39 1017.46 1017.50 1017.66 1017.59 1017.57 1017.78 1017.38 1016.50 1016.75 1017.35 1017.07 1016.31 1015.34 1015.04 1015.30 1015.01 1014.52 1014.06 1013.33 1013.66 1014.24 1013.69 1013.02 1013.15 1013.31 1013.57 1013.38 1013.33 1013.42 1013.83 1014.36 1015.26 1015.88 1016.28 1017.15 1017.48 1017.77 1017.95 1018.35 1018.88 1019.21 1019.71
Wind_Speed
17 12 13 9 11 9 10 10 8 10 9 9 7 4 6 4 10 13 20 20 14 17 14 13 13 12 11 10 9 5 6 2 4 5 2 2 1 3 3 3 3 4 6
17 15 14 8 12 13 12 10 10 10 11 10 4 4 6 6 12 14 17 16 16 16 14 15 12 13 9 10 8 6 4 3 4 4 4 2 2 2 4 3 3 4 2
19 15 10 9 13 13 12 13 11 10 10 14 6 5 3 8 11 13 13 14 16 16 16 15 11 11 11 10 10 7 7 5 1 5 5 3 4 2 1 4 3 4 2
19 17 10 10 12 13 12 11 10 11 11 11 7 11 7 8 8 10 13 15 17 17 16 15 12 12 10 10 7 7 5 6 5 2 1 2 5 4 1 1 1 3 3
16 17 13 9 15 12 10 12 11 11 10 7 9 9 8 6 7 8 16 14 13 15 14 15 11 13 11 10 10 8 7 5 4 4 3 1 3 3 4 3 2 2 0
13 11 9 8 11 8 8 10 10 12 12 9 6 10 2 12 6 11 13 11 10 10 14 13 12 12 12 11 10 9 9 8 5 3 4 4 4 3 3 2 1 2 2
12 8 8 8 9 10 8 4 10 13 13 11 7 13 8 9 10 14 12 12 10 10 14 15 14 12 13 11 10 10 8 8 8 6 5 4 4 4 3 4 2 2 1
5 7 8 9 9 8 7 14 14 12 11 12 8 8 9 3 1 8 10 10 12 12 12 12 12 12 13 11 10 8 7 7 7 8 5 4 4 4 4 4 5 2 2
4 8 5 4 8 8 9 11 15 14 12 14 10 7 8 7 11 10 11 9 9 10 10 12 12 12 12 12 11 8 9 8 7 7 7 5 3 3 4 3 4 5 4
2 2 4 7 6 8 9 12 12 12 8 5 3 6 7 9 16 13 13 12 10 11 11 12 12 13 11 11 11 8 9 10 6 6 8 4 3 5 4 3 2 3 5
4 4 6 10 9 9 10 11 10 11 6 6 5 4 1 9 18 14 12 12 13 13 14 14 13 13 13 12 12 11 11 11 9 6 7 6 5 4 4 4 3 3 3
3 7 11 15 14 11 11 10 10 9 5 4 5 6 9 7 10 9 12 13 13 13 14 14 14 13 14 14 14 13 12 13 11 10 8 7 4 5 4 4 3 2 2
7 9 15 16 15 11 10 11 10 8 7 5 8 7 7 7 9 5 6 13 14 14 14 14 15 14 15 15 14 14 13 11 11 10 10 8 8 5 3 3 5 3 3
23 18 20 18 14 12 12 11 11 8 8 7 7 8 7 6 5 6 2 13 12 13 13 15 14 14 12 11 10 9 9 8 7 7 8 9 9 8 8 5 3 4 6
22 23 20 18 18 16 15 14 12 11 9 9 9 8 7 6 6 5 5 7 8 10 11 10 12 12 11 7 9 8 8 8 8 6 7 7 8 12 7 7 6 5 5
22 22 21 21 17 16 14 13 12 12 12 11 10 8 6 5 5 6 6 7 7 6 6 10 5 7 5 9 12 11 9 8 10 9 6 6 11 12 11 11 7 7 6
19 20 18 17 15 14 13 12 11 10 11 12 10 10 8 8 7 6 5 5 6 7 7 5 5 5 4 12 15 14 9 10 8 8 9 7 6 10 8 12 13 11 9
17 15 14 14 13 12 11 10 10 10 10 10 8 7 7 7 7 8 7 7 5 6 4 5 5 5 4 10 11 11 8 7 7 8 9 9 9 7 9 9 7 6 5
11 11 11 12 14 12 10 11 12 11 10 9 7 6 5 5 4 6 6 5 5 4 3 4 5 6 4 7 9 7 7 7 7 7 8 9 10 15 15 8 7 6 3
9 10 9 9 12 9 9 12 11 11 11 7 5 6 6 6 5 4 5 4 1 5 6 7 6 7 5 7 7 8 6 7 5 4 5 10 8 13 13 7 7 7 6
9 8 11 11 8 6 8 12 9 13 6 5 6 7 7 6 4 3 2 2 3 3 3 2 2 3 8 11 14 11 7 6 6 5 3 3 11 13 14 11 6 6 7
8 7 7 9 9 10 10 11 14 7 5 3 7 6 4 3 3 3 2 1 2 1 1 1 1 0 3 7 9 12 14 19 13 12 7 6 14 15 15 12 13 15 11
6 6 6 6 9 9 9 9 6 5 5 7 5 6 6 4 3 1 1 1 2 2 4 3 3 3 4 4 10 9 7 12 5 6 10 16 19 16 12 11 13 14 5
6 5 6 5 5 6 7 6 9 10 8 7 7 6 4 3 3 2 3 3 3 4 4 4 4 4 4 3 4 4 4 5 6 7 7 10 12 11 8 8 7 5 6
5 5 6 7 7 6 6 5 4 6 8 9 8 7 5 5 6 3 4 7 5 4 5 6 5 5 6 8 10 9 7 6 5 7 4 3 3 5 4 4 5 4 5
3 4 3 3 3 3 3 4 7 6 5 5 5 8 8 8 7 6 7 6 9 11 10 10 8 7 12 11 17 19 17 16 18 6 6 6 7 8 8 7 6 5 8
Wind_Direction
262 251 239 214 198 178 175 187 182 195 204 215 186 163 129 245 304 179 172 168 168 176 163 165 159 163 166 166 160 133 145 117 133 112 60 25 219 195 193 186 197 193 197
249 248 238 197 189 183 187 195 195 204 213 210 184 178 102 288 273 197 167 165 166 167 164 161 162 160 150 150 157 134 127 127 170 133 108 151 330 282 232 207 209 214 189
245 240 221 183 187 188 187 205 195 209 213 202 167 133 102 325 243 156 158 165 162 168 166 160 154 155 159 163 165 147 144 140 179 139 144 130 193 145 316 230 213 191 167
236 228 204 189 203 195 195 194 199 207 198 193 166 117 107 255 285 158 164 165 163 164 171 163 155 162 157 164 160 150 146 137 155 109 138 124 147 148 122 329 218 151 116
214 213 203 188 205 187 179 194 198 200 181 189 178 164 135 260 282 180 156 164 161 161 173 167 157 166 159 165 155 153 153 148 150 142 154 117 69 101 133 173 240 13 3
201 204 204 188 189 169 178 190 192 191 173 158 197 122 141 302 229 161 150 165 165 163 170 175 166 165 155 161 160 157 157 163 151 152 161 159 154 172 145 135 209 197 274
195 187 173 153 162 166 165 194 198 173 166 148 174 124 179 243 190 171 158 162 166 172 176 170 168 162 153 157 157 160 160 160 165 166 163 158 155 145 134 125 157 184 296
168 176 159 170 162 153 172 213 180 159 166 156 167 133 167 188 200 191 155 167 177 174 165 164 156 146 148 150 152 159 161 164 161 163 166 154 160 157 160 158 146 156 223
169 109 144 138 157 177 186 191 163 154 159 169 163 170 183 200 179 200 161 160 171 167 156 152 150 147 150 156 157 165 164 168 171 177 166 158 171 164 155 151 169 155 156
205 175 193 184 165 197 201 179 157 163 169 172 219 162 194 214 183 175 161 158 156 156 148 144 150 151 151 157 164 169 169 168 178 172 164 150 147 151 145 151 204 261 127
273 223 184 212 185 195 171 151 142 131 139 134 153 162 208 190 168 161 155 153 158 160 156 154 158 160 162 164 171 179 175 171 170 160 170 166 148 149 139 147 175 185 119
234 275 242 253 216 153 121 131 128 127 123 125 133 71 55 51 109 148 163 156 163 166 165 166 167 168 171 174 179 176 178 177 177 174 162 161 133 153 149 130 222 198 131
82 98 75 91 107 125 124 115 113 117 106 103 85 76 66 50 86 82 190 172 162 167 171 169 172 173 176 177 181 180 179 180 177 168 165 162 153 150 153 144 153 217 121
46 40 57 62 66 84 90 99 97 90 87 81 89 88 77 79 99 74 12 178 172 163 172 174 175 168 164 166 157 162 166 168 171 175 162 152 150 155 152 150 171 193 104
38 41 44 50 48 54 58 62 67 63 67 71 71 67 65 71 67 78 49 71 104 153 161 172 167 159 156 156 159 172 176 165 152 151 138 153 146 134 163 151 187 140 99
35 43 43 46 42 44 49 55 56 56 57 57 57 57 62 66 80 63 61 59 56 85 130 118 115 121 107 169 163 163 165 159 159 150 127 135 125 111 130 128 140 134 133
38 37 39 40 42 43 46 49 53 63 68 67 58 51 48 48 50 66 74 75 83 95 88 91 106 111 161 176 169 165 160 152 148 146 142 126 116 128 135 122 109 110 112
35 38 33 34 32 40 49 59 59 63 64 60 60 69 77 77 69 64 58 51 51 73 75 97 103 111 97 119 133 133 130 125 145 152 146 143 151 154 142 140 128 111 106
35 36 32 32 34 34 42 51 47 49 47 45 44 46 55 61 78 111 120 113 92 79 90 114 114 111 102 134 125 119 116 135 148 146 147 152 160 164 151 127 124 132 142
34 34 38 43 41 25 40 50 45 50 46 33 30 34 22 28 47 52 37 360 91 151 149 145 148 145 147 154 142 128 128 122 125 115 140 151 150 161 150 137 160 160 182
27 35 42 44 32 27 52 51 39 41 16 23 34 31 24 34 41 58 63 88 56 56 28 90 123 168 166 176 161 156 155 147 150 146 142 147 166 167 165 165 164 178 154
29 30 50 38 24 26 44 43 38 0 349 13 42 19 23 30 49 46 30 29 91 156 211 221 337 278 196 212 208 185 180 164 166 171 158 169 174 172 178 171 177 160 149
27 24 43 39 30 23 39 51 25 350 0 36 15 7 6 348 8 295 283 32 26 242 222 216 243 216 182 197 212 201 177 175 173 170 174 168 176 177 181 181 173 157 138
30 31 47 49 37 22 30 35 12 359 15 16 7 354 346 311 257 281 16 351 249 250 253 234 240 218 205 215 188 195 200 182 149 159 175 172 170 174 162 161 186 155 160
32 34 31 30 21 21 17 10 342 359 6 359 356 343 335 344 339 2 224 219 224 194 219 228 198 208 232 221 198 194 186 189 164 121 109 133 145 167 157 165 174 169 166
77 68 65 66 27 41 12 3 13 10 338 330 339 351 354 342 334 327 319 293 242 234 246 246 212 220 230 211 200 198 198 190 174 161 170 183 185 190 183 180 180 174 184